When you browse on this site, cookies collect data to enhance your experience and personalize the content and advertising you see.
Visit our Privacy Policy to learn more. By continuing to use the site, you agree to this use of cookies and data.
EN

Hourly Weather Zgoda

Today, 12 August, Wednesday

Time Temperature Precipitation Wind Pressure Humidity
00:00 +16°C° 0 mm 3 mps 766 mmHg 88%
01:00 +16°C° 0 mm 3 mps 766 mmHg 89%
02:00 +15°C° 0 mm 2 mps 766 mmHg 89%
03:00 +15°C° 0 mm 1 mps 766 mmHg 90%
04:00 +15°C° 0 mm 1 mps 766 mmHg 90%
05:00 +16°C° 0 mm 1 mps 766 mmHg 86%
06:00 +18°C° 0 mm 1 mps 766 mmHg 81%
07:00 +19°C° 0 mm 1 mps 766 mmHg 77%
08:00 +19°C° 0 mm 2 mps 766 mmHg 71%
09:00 +21°C° 0 mm 2 mps 766 mmHg 65%
10:00 +23°C° 0 mm 2 mps 766 mmHg 59%
11:00 +23°C° 0 mm 2 mps 766 mmHg 56%
12:00 +24°C° 0 mm 2 mps 766 mmHg 54%
13:00 +24°C° 0 mm 2 mps 766 mmHg 52%
14:00 +24°C° 0 mm 2 mps 766 mmHg 53%
15:00 +24°C° 0 mm 3 mps 765 mmHg 55%
16:00 +24°C° 0 mm 3 mps 765 mmHg 57%
17:00 +21°C° 0 mm 3 mps 765 mmHg 63%
18:00 +20°C° 0 mm 3 mps 765 mmHg 70%
19:00 +18°C° 0 mm 4 mps 765 mmHg 76%
20:00 +17°C° 0 mm 3 mps 765 mmHg 79%
21:00 +16°C° 0 mm 3 mps 765 mmHg 81%
22:00 +14°C° 0 mm 3 mps 765 mmHg 84%
23:00 +14°C° 0 mm 3 mps 765 mmHg 84%

Tomorrow, 13 August, Thursday

Time Temperature Precipitation Wind Pressure Humidity
00:00 +13°C° 0 mm 3 mps 765 mmHg 83%
01:00 +14°C° 0 mm 2 mps 765 mmHg 83%
02:00 +14°C° 0 mm 2 mps 764 mmHg 84%
03:00 +14°C° 0 mm 2 mps 764 mmHg 85%
04:00 +13°C° 0 mm 2 mps 764 mmHg 87%
05:00 +15°C° 0 mm 2 mps 764 mmHg 82%
06:00 +16°C° 0 mm 2 mps 764 mmHg 78%
07:00 +18°C° 0 mm 2 mps 764 mmHg 73%
08:00 +19°C° 0 mm 2 mps 764 mmHg 69%
09:00 +22°C° 0 mm 1 mps 764 mmHg 64%
10:00 +23°C° 0 mm 1 mps 764 mmHg 59%
11:00 +24°C° 0 mm 1 mps 763 mmHg 56%
12:00 +25°C° 0 mm 1 mps 763 mmHg 54%
13:00 +25°C° 0 mm 1 mps 763 mmHg 52%
14:00 +25°C° 0 mm 2 mps 763 mmHg 54%
15:00 +25°C° 0 mm 2 mps 762 mmHg 56%
16:00 +24°C° 0 mm 3 mps 762 mmHg 57%
17:00 +22°C° 0 mm 3 mps 762 mmHg 64%
18:00 +20°C° 0 mm 3 mps 762 mmHg 70%
19:00 +19°C° 0 mm 3 mps 762 mmHg 77%
20:00 +18°C° 0 mm 3 mps 762 mmHg 78%
21:00 +17°C° 0 mm 3 mps 762 mmHg 80%
22:00 +16°C° 0 mm 3 mps 762 mmHg 82%
23:00 +16°C° 0 mm 2 mps 762 mmHg 81%

Day after tomorrow, 14 August, Friday

Time Temperature Precipitation Wind Pressure Humidity
00:00 +16°C° 0 mm 2 mps 762 mmHg 79%
01:00 +16°C° 0 mm 2 mps 762 mmHg 78%
02:00 +15°C° 0 mm 2 mps 762 mmHg 80%
03:00 +15°C° 0 mm 2 mps 762 mmHg 81%
04:00 +15°C° 0 mm 2 mps 762 mmHg 82%
05:00 +16°C° 0 mm 2 mps 762 mmHg 79%
06:00 +18°C° 0 mm 2 mps 762 mmHg 76%
07:00 +19°C° 0 mm 2 mps 762 mmHg 73%
08:00 +20°C° 0 mm 2 mps 762 mmHg 68%
09:00 +23°C° 0 mm 1 mps 762 mmHg 63%
10:00 +24°C° 0 mm 1 mps 762 mmHg 58%
11:00 +25°C° 0 mm 1 mps 762 mmHg 56%
12:00 +26°C° 0 mm 1 mps 762 mmHg 55%
13:00 +26°C° 0 mm 2 mps 761 mmHg 53%
14:00 +26°C° 0 mm 2 mps 761 mmHg 55%
15:00 +25°C° 0 mm 2 mps 761 mmHg 58%
16:00 +25°C° 0 mm 2 mps 761 mmHg 61%
17:00 +24°C° 0 mm 2 mps 761 mmHg 67%
18:00 +21°C° 0 mm 3 mps 761 mmHg 72%
19:00 +20°C° 0 mm 3 mps 761 mmHg 78%
20:00 +19°C° 0 mm 2 mps 761 mmHg 80%
21:00 +19°C° 0 mm 2 mps 762 mmHg 82%
22:00 +18°C° 0 mm 2 mps 762 mmHg 84%
23:00 +18°C° 0 mm 2 mps 762 mmHg 84%

15 August, Saturday

Time Temperature Precipitation Wind Pressure Humidity
00:00 +18°C° 0 mm 1 mps 762 mmHg 84%
01:00 +18°C° 0 mm 1 mps 762 mmHg 83%
02:00 +18°C° 0 mm 1 mps 762 mmHg 83%
03:00 +17°C° 0 mm 2 mps 762 mmHg 82%
04:00 +17°C° 0 mm 2 mps 762 mmHg 81%
05:00 +18°C° 0 mm 2 mps 762 mmHg 78%
06:00 +19°C° 0 mm 2 mps 762 mmHg 74%
07:00 +20°C° 0 mm 2 mps 762 mmHg 70%
08:00 +23°C° 0 mm 1 mps 763 mmHg 66%
09:00 +24°C° 0 mm 1 mps 763 mmHg 62%
10:00 +25°C° 0 mm 1 mps 763 mmHg 57%
11:00 +26°C° 0 mm 1 mps 763 mmHg 55%
12:00 +27°C° 0 mm 1 mps 763 mmHg 53%
13:00 +27°C° 0 mm 1 mps 763 mmHg 51%
14:00 +27°C° 0 mm 1 mps 763 mmHg 52%
15:00 +27°C° 0 mm 1 mps 763 mmHg 53%
16:00 +27°C° 0 mm 2 mps 763 mmHg 53%
17:00 +26°C° 0 mm 2 mps 763 mmHg 58%
18:00 +24°C° 0 mm 2 mps 763 mmHg 63%
19:00 +23°C° 0 mm 2 mps 763 mmHg 68%
20:00 +21°C° 0 mm 2 mps 763 mmHg 68%
21:00 +20°C° 0 mm 2 mps 763 mmHg 69%
22:00 +19°C° 0 mm 3 mps 763 mmHg 70%
23:00 +19°C° 0 mm 3 mps 763 mmHg 71%

16 August, Sunday

Time Temperature Precipitation Wind Pressure Humidity
00:00 +19°C° 0 mm 3 mps 763 mmHg 71%
01:00 +18°C° 0 mm 3 mps 763 mmHg 72%
02:00 +18°C° 0 mm 3 mps 763 mmHg 73%
03:00 +17°C° 0 mm 3 mps 763 mmHg 74%
04:00 +17°C° 0 mm 2 mps 763 mmHg 75%
05:00 +18°C° 0 mm 2 mps 763 mmHg 73%
06:00 +19°C° 0 mm 2 mps 763 mmHg 70%
07:00 +21°C° 0 mm 2 mps 763 mmHg 68%
08:00 +23°C° 0 mm 2 mps 764 mmHg 64%
09:00 +24°C° 0 mm 2 mps 764 mmHg 59%
10:00 +26°C° 0 mm 2 mps 764 mmHg 55%
11:00 +26°C° 0 mm 2 mps 764 mmHg 52%
12:00 +27°C° 0 mm 2 mps 764 mmHg 50%
13:00 +27°C° 0 mm 2 mps 763 mmHg 47%
14:00 +27°C° 0 mm 2 mps 763 mmHg 48%
15:00 +27°C° 0 mm 3 mps 763 mmHg 49%
16:00 +28°C° 0 mm 3 mps 763 mmHg 50%
17:00 +26°C° 0 mm 3 mps 762 mmHg 57%
18:00 +24°C° 0 mm 3 mps 762 mmHg 63%
19:00 +22°C° 0 mm 3 mps 762 mmHg 69%
20:00 +21°C° 0 mm 3 mps 762 mmHg 71%
21:00 +20°C° 0 mm 3 mps 762 mmHg 72%
22:00 +19°C° 0 mm 3 mps 763 mmHg 73%
23:00 +19°C° 0 mm 4 mps 763 mmHg 75%

17 August, Monday

Time Temperature Precipitation Wind Pressure Humidity
00:00 +19°C° 0 mm 4 mps 762 mmHg 76%
01:00 +18°C° 0 mm 4 mps 762 mmHg 77%
02:00 +18°C° 0 mm 4 mps 762 mmHg 78%
03:00 +18°C° 0 mm 4 mps 762 mmHg 78%
04:00 +17°C° 0 mm 4 mps 762 mmHg 79%
05:00 +19°C° 0 mm 4 mps 762 mmHg 75%
06:00 +20°C° 0 mm 4 mps 762 mmHg 71%
07:00 +21°C° 0 mm 5 mps 762 mmHg 68%
08:00 +22°C° 0 mm 5 mps 762 mmHg 63%
09:00 +25°C° 0 mm 5 mps 762 mmHg 57%
10:00 +26°C° 0 mm 5 mps 762 mmHg 52%
11:00 +27°C° 0 mm 5 mps 762 mmHg 50%
12:00 +27°C° 0 mm 5 mps 761 mmHg 47%
13:00 +28°C° 0 mm 5 mps 761 mmHg 45%
14:00 +28°C° 0 mm 5 mps 761 mmHg 47%
15:00 +28°C° 0 mm 5 mps 760 mmHg 50%
16:00 +28°C° 0 mm 5 mps 760 mmHg 52%
17:00 +27°C° 0 mm 5 mps 760 mmHg 57%
18:00 +25°C° 0 mm 5 mps 760 mmHg 63%
19:00 +23°C° 0 mm 5 mps 759 mmHg 68%
20:00 +22°C° 0 mm 5 mps 759 mmHg 66%
21:00 +22°C° 0 mm 5 mps 759 mmHg 64%
22:00 +22°C° 0 mm 5 mps 759 mmHg 63%
23:00 +21°C° 0 mm 5 mps 759 mmHg 63%
Show more